Time,TemperatureF,DewpointF,PressureIn,WindDirection,WindDirectionDegrees,WindSpeedMPH,WindSpeedGustMPH,Humidity,HourlyPrecipIn,Conditions,Clouds,dailyrainin,SoftwareType,DateUTC
2013-06-29 00:01:00,81.2,72.9,29.76,SSW,212,0.0,0.0,76,0.00,,,0.00,Wunderground v.1.15,2013-06-29 04:01:00,
2013-06-29 00:02:00,81.2,72.9,29.76,SSW,212,0.0,0.0,76,0.00,,,0.00,Wunderground v.1.15,2013-06-29 04:02:00,
2013-06-29 00:03:00,81.2,72.9,29.76,SSW,212,0.0,0.0,76,0.00,,,0.00,Wunderground v.1.15,2013-06-29 04:03:00,
2013-06-29 00:05:00,81.2,72.9,29.76,SSW,212,0.0,0.0,76,0.00,,,0.00,Wunderground v.1.15,2013-06-29 04:05:00,
2013-06-29 00:11:00,81.2,72.9,29.76,SSW,212,0.0,0.0,76,0.00,,,0.00,Wunderground v.1.15,2013-06-29 04:11:00,
2013-06-29 00:15:00,81.2,72.9,29.77,SW,219,0.0,0.0,76,0.00,,,0.00,Wunderground v.1.15,2013-06-29 04:15:00,
2013-06-29 00:20:00,81.1,72.8,29.77,SW,219,0.0,0.0,76,0.00,,,0.00,Wunderground v.1.15,2013-06-29 04:20:00,
2013-06-29 00:26:00,81.1,72.8,29.77,SW,219,0.0,0.0,76,0.00,,,0.00,Wunderground v.1.15,2013-06-29 04:26:00,
2013-06-29 00:32:00,81.1,72.8,29.76,SW,219,0.0,0.0,76,0.00,,,0.00,Wunderground v.1.15,2013-06-29 04:32:00,
2013-06-29 00:38:00,81.1,73.2,29.76,SW,219,0.0,0.0,77,0.00,,,0.00,Wunderground v.1.15,2013-06-29 04:38:00,
2013-06-29 00:44:00,81.1,73.2,29.76,SW,219,0.0,0.0,77,0.00,,,0.00,Wunderground v.1.15,2013-06-29 04:44:00,
2013-06-29 00:50:00,81.1,73.2,29.75,SW,219,0.0,0.0,77,0.00,,,0.00,Wunderground v.1.15,2013-06-29 04:50:00,
2013-06-29 00:56:00,81.1,73.2,29.75,SE,144,0.0,0.0,77,0.00,,,0.00,Wunderground v.1.15,2013-06-29 04:56:00,
2013-06-29 01:02:00,81.1,73.2,29.75,SW,233,0.0,0.0,77,0.00,,,0.00,Wunderground v.1.15,2013-06-29 05:02:00,
2013-06-29 01:08:00,81.1,73.2,29.75,SW,233,0.0,0.0,77,0.00,,,0.00,Wunderground v.1.15,2013-06-29 05:08:00,
2013-06-29 01:14:00,80.9,73.0,29.75,South,169,0.0,0.0,77,0.00,,,0.00,Wunderground v.1.15,2013-06-29 05:14:00,
2013-06-29 01:20:00,80.9,73.0,29.74,SSW,210,0.0,0.0,77,0.00,,,0.00,Wunderground v.1.15,2013-06-29 05:20:00,
2013-06-29 01:25:00,80.7,72.8,29.74,SSE,160,0.0,0.0,77,0.00,,,0.00,Wunderground v.1.15,2013-06-29 05:25:00,
2013-06-29 01:31:00,80.5,72.6,29.73,SSE,147,0.0,0.0,77,0.00,,,0.00,Wunderground v.1.15,2013-06-29 05:31:00,
2013-06-29 01:37:00,80.5,72.6,29.73,SSE,152,0.0,0.0,77,0.00,,,0.00,Wunderground v.1.15,2013-06-29 05:37:00,
2013-06-29 01:43:00,80.3,72.4,29.73,SSW,203,0.0,0.0,77,0.00,,,0.00,Wunderground v.1.15,2013-06-29 05:43:00,
2013-06-29 01:49:00,80.3,72.8,29.73,SSW,203,0.0,0.0,78,0.00,,,0.00,Wunderground v.1.15,2013-06-29 05:49:00,
2013-06-29 01:55:00,80.3,72.8,29.73,SSW,209,0.0,0.0,78,0.00,,,0.00,Wunderground v.1.15,2013-06-29 05:55:00,
2013-06-29 02:00:00,80.3,72.8,29.73,SW,223,0.0,0.0,78,0.00,,,0.00,Wunderground v.1.15,2013-06-29 06:00:00,
2013-06-29 02:05:00,80.3,72.8,29.73,SW,223,0.0,0.0,78,0.00,,,0.00,Wunderground v.1.15,2013-06-29 06:05:00,
2013-06-29 02:10:00,80.3,72.8,29.73,SW,219,6.0,6.0,78,0.00,,,0.00,Wunderground v.1.15,2013-06-29 06:10:00,
2013-06-29 02:15:00,80.3,72.8,29.73,SW,230,0.0,6.0,78,0.00,,,0.00,Wunderground v.1.15,2013-06-29 06:15:00,
2013-06-29 02:20:00,80.1,72.6,29.73,SSE,165,0.0,7.0,78,0.00,,,0.00,Wunderground v.1.15,2013-06-29 06:20:00,
2013-06-29 02:25:00,80.1,72.6,29.73,SSW,213,0.0,7.0,78,0.00,,,0.00,Wunderground v.1.15,2013-06-29 06:25:00,
2013-06-29 02:30:00,80.3,72.8,29.72,South,171,0.0,0.0,78,0.00,,,0.00,Wunderground v.1.15,2013-06-29 06:30:00,
2013-06-29 02:35:00,80.3,72.8,29.72,East,95,0.0,2.0,78,0.00,,,0.00,Wunderground v.1.15,2013-06-29 06:35:00,
2013-06-29 02:40:00,80.3,72.8,29.72,SSE,151,0.0,0.0,78,0.00,,,0.00,Wunderground v.1.15,2013-06-29 06:40:00,
2013-06-29 02:45:00,80.3,72.8,29.72,SSE,165,0.0,1.0,78,0.00,,,0.00,Wunderground v.1.15,2013-06-29 06:45:00,
2013-06-29 02:50:00,80.3,72.8,29.72,SW,217,0.0,0.0,78,0.00,,,0.00,Wunderground v.1.15,2013-06-29 06:50:00,
2013-06-29 02:55:00,80.3,72.8,29.72,SW,222,0.0,6.0,78,0.00,,,0.00,Wunderground v.1.15,2013-06-29 06:55:00,
2013-06-29 03:00:00,80.3,72.8,29.72,SSE,154,0.0,0.0,78,0.00,,,0.00,Wunderground v.1.15,2013-06-29 07:00:00,
2013-06-29 03:05:00,80.3,72.8,29.72,WSW,237,0.0,2.0,78,0.00,,,0.00,Wunderground v.1.15,2013-06-29 07:05:00,
2013-06-29 03:10:00,80.3,72.8,29.72,SSW,195,0.0,1.0,78,0.00,,,0.00,Wunderground v.1.15,2013-06-29 07:10:00,
2013-06-29 03:16:00,80.3,72.8,29.72,SSW,193,0.0,1.0,78,0.00,,,0.00,Wunderground v.1.15,2013-06-29 07:16:00,
2013-06-29 03:21:00,80.3,72.8,29.72,SW,220,0.0,1.0,78,0.00,,,0.00,Wunderground v.1.15,2013-06-29 07:21:00,
2013-06-29 03:26:00,80.3,72.8,29.72,SW,222,0.0,1.0,78,0.00,,,0.00,Wunderground v.1.15,2013-06-29 07:26:00,
2013-06-29 03:31:00,80.3,72.8,29.72,SW,222,0.0,0.0,78,0.00,,,0.00,Wunderground v.1.15,2013-06-29 07:31:00,
2013-06-29 03:36:00,80.3,72.8,29.72,SW,222,0.0,6.0,78,0.00,,,0.00,Wunderground v.1.15,2013-06-29 07:36:00,
2013-06-29 03:41:00,80.3,72.8,29.72,SW,219,0.0,0.0,78,0.00,,,0.00,Wunderground v.1.15,2013-06-29 07:41:00,
2013-06-29 03:46:00,80.3,72.8,29.73,SW,219,0.0,0.0,78,0.00,,,0.00,Wunderground v.1.15,2013-06-29 07:46:00,
2013-06-29 03:51:00,80.3,72.8,29.73,SW,232,0.0,7.0,78,0.00,,,0.00,Wunderground v.1.15,2013-06-29 07:51:00,
2013-06-29 03:56:00,80.3,72.8,29.73,SW,222,0.0,7.0,78,0.00,,,0.00,Wunderground v.1.15,2013-06-29 07:56:00,
2013-06-29 04:01:00,80.3,72.8,29.73,West,264,0.0,3.0,78,0.00,,,0.00,Wunderground v.1.15,2013-06-29 08:01:00,
2013-06-29 04:06:00,80.3,72.8,29.73,SW,226,0.0,6.0,78,0.00,,,0.00,Wunderground v.1.15,2013-06-29 08:06:00,
2013-06-29 04:11:00,80.5,73.4,29.73,SSE,162,0.0,10.0,79,0.00,,,0.00,Wunderground v.1.15,2013-06-29 08:11:00,
2013-06-29 04:16:00,80.7,73.2,29.73,SW,217,0.0,10.0,78,0.00,,,0.00,Wunderground v.1.15,2013-06-29 08:16:00,
2013-06-29 04:21:00,80.7,73.2,29.73,SSE,155,0.0,3.0,78,0.00,,,0.00,Wunderground v.1.15,2013-06-29 08:21:00,
2013-06-29 04:26:00,80.7,73.2,29.73,SW,219,0.0,5.0,78,0.00,,,0.00,Wunderground v.1.15,2013-06-29 08:26:00,
2013-06-29 04:31:00,80.7,73.2,29.73,SW,233,0.0,0.0,78,0.00,,,0.00,Wunderground v.1.15,2013-06-29 08:31:00,
2013-06-29 04:36:00,80.7,73.2,29.73,SW,217,0.0,3.0,78,0.00,,,0.00,Wunderground v.1.15,2013-06-29 08:36:00,
2013-06-29 04:41:00,80.7,73.2,29.73,South,178,0.0,0.0,78,0.00,,,0.00,Wunderground v.1.15,2013-06-29 08:41:00,
2013-06-29 04:46:00,80.7,73.2,29.73,SW,222,0.0,0.0,78,0.00,,,0.00,Wunderground v.1.15,2013-06-29 08:46:00,
2013-06-29 04:51:00,80.7,73.2,29.73,SW,222,0.0,1.0,78,0.00,,,0.00,Wunderground v.1.15,2013-06-29 08:51:00,
2013-06-29 04:56:00,80.7,73.2,29.73,SW,226,0.0,3.0,78,0.00,,,0.00,Wunderground v.1.15,2013-06-29 08:56:00,
2013-06-29 05:01:00,80.7,73.2,29.73,SW,226,0.0,0.0,78,0.00,,,0.00,Wunderground v.1.15,2013-06-29 09:01:00,
2013-06-29 05:06:00,80.7,73.2,29.73,SW,234,0.0,3.0,78,0.00,,,0.00,Wunderground v.1.15,2013-06-29 09:06:00,
2013-06-29 05:11:00,80.7,73.2,29.73,SW,230,0.0,7.0,78,0.00,,,0.00,Wunderground v.1.15,2013-06-29 09:11:00,
2013-06-29 05:16:00,80.7,73.2,29.73,South,172,0.0,7.0,78,0.00,,,0.00,Wunderground v.1.15,2013-06-29 09:16:00,
2013-06-29 05:21:00,80.9,73.4,29.73,SW,233,0.0,0.0,78,0.00,,,0.00,Wunderground v.1.15,2013-06-29 09:21:00,
2013-06-29 05:26:00,80.9,73.4,29.73,South,188,0.0,7.0,78,0.00,,,0.00,Wunderground v.1.15,2013-06-29 09:26:00,
2013-06-29 05:31:00,80.9,73.4,29.73,WSW,251,0.0,7.0,78,0.00,,,0.00,Wunderground v.1.15,2013-06-29 09:31:00,
2013-06-29 05:36:00,80.9,73.4,29.73,SE,133,0.0,7.0,78,0.00,,,0.00,Wunderground v.1.15,2013-06-29 09:36:00,
2013-06-29 05:41:00,80.9,73.4,29.73,SW,219,0.0,0.0,78,0.00,,,0.00,Wunderground v.1.15,2013-06-29 09:41:00,
2013-06-29 05:46:00,80.9,73.4,29.73,SW,227,0.0,0.0,78,0.00,,,0.00,Wunderground v.1.15,2013-06-29 09:46:00,
2013-06-29 05:51:00,80.9,73.4,29.73,SSW,200,0.0,0.0,78,0.00,,,0.00,Wunderground v.1.15,2013-06-29 09:51:00,
2013-06-29 05:56:00,80.9,73.4,29.73,SSE,165,0.0,8.0,78,0.00,,,0.00,Wunderground v.1.15,2013-06-29 09:56:00,
2013-06-29 06:01:00,80.9,73.4,29.73,WSW,237,0.0,1.0,78,0.00,,,0.00,Wunderground v.1.15,2013-06-29 10:01:00,
2013-06-29 06:06:00,80.9,73.4,29.73,WSW,240,0.0,5.0,78,0.00,,,0.00,Wunderground v.1.15,2013-06-29 10:06:00,
2013-06-29 06:11:00,80.9,73.4,29.73,WSW,253,1.0,1.0,78,0.00,,,0.00,Wunderground v.1.15,2013-06-29 10:11:00,
2013-06-29 06:16:00,80.7,73.2,29.72,SW,219,0.0,7.0,78,0.00,,,0.00,Wunderground v.1.15,2013-06-29 10:16:00,
2013-06-29 06:21:00,80.7,72.8,29.72,SW,220,0.0,0.0,77,0.00,,,0.00,Wunderground v.1.15,2013-06-29 10:21:00,
2013-06-29 06:26:00,80.7,72.8,29.72,SW,226,0.0,7.0,77,0.00,,,0.00,Wunderground v.1.15,2013-06-29 10:26:00,
2013-06-29 06:31:00,80.7,72.8,29.73,SW,224,0.0,0.0,77,0.00,,,0.00,Wunderground v.1.15,2013-06-29 10:31:00,
2013-06-29 06:36:00,80.9,73.4,29.73,SW,224,0.0,0.0,78,0.00,,,0.00,Wunderground v.1.15,2013-06-29 10:36:00,
2013-06-29 06:41:00,80.9,73.4,29.73,SSE,165,5.0,5.0,78,0.00,,,0.01,Wunderground v.1.15,2013-06-29 10:41:00,
2013-06-29 06:46:00,80.9,73.8,29.73,WSW,251,0.0,5.0,79,0.14,,,0.02,Wunderground v.1.15,2013-06-29 10:46:00,
2013-06-29 06:51:00,80.9,73.8,29.73,SSW,209,0.0,2.0,79,0.06,,,0.02,Wunderground v.1.15,2013-06-29 10:51:00,
2013-06-29 06:56:00,80.7,73.6,29.73,South,169,0.0,2.0,79,0.04,,,0.02,Wunderground v.1.15,2013-06-29 10:56:00,
2013-06-29 07:01:00,80.5,73.4,29.73,South,169,0.0,0.0,79,0.00,,,0.02,Wunderground v.1.15,2013-06-29 11:01:00,
2013-06-29 07:06:00,80.3,73.6,29.73,SW,229,0.0,2.0,80,0.00,,,0.02,Wunderground v.1.15,2013-06-29 11:06:00,
2013-06-29 07:11:00,80.3,73.6,29.73,SW,229,0.0,0.0,80,0.00,,,0.02,Wunderground v.1.15,2013-06-29 11:11:00,
2013-06-29 07:16:00,80.3,73.6,29.73,SW,226,0.0,6.0,80,0.00,,,0.02,Wunderground v.1.15,2013-06-29 11:16:00,
2013-06-29 07:21:00,80.1,73.4,29.73,SSE,165,0.0,0.0,80,0.00,,,0.02,Wunderground v.1.15,2013-06-29 11:21:00,
2013-06-29 07:26:00,80.1,73.4,29.73,SSW,213,0.0,3.0,80,0.00,,,0.02,Wunderground v.1.15,2013-06-29 11:26:00,
2013-06-29 07:32:00,80.3,73.9,29.73,SSW,213,0.0,0.0,81,0.00,,,0.02,Wunderground v.1.15,2013-06-29 11:32:00,
2013-06-29 07:37:00,80.5,74.1,29.73,SW,236,0.0,1.0,81,0.00,,,0.02,Wunderground v.1.15,2013-06-29 11:37:00,
2013-06-29 07:42:00,80.7,74.3,29.73,SSW,209,0.0,6.0,81,0.00,,,0.02,Wunderground v.1.15,2013-06-29 11:42:00,
2013-06-29 07:47:00,80.7,74.0,29.74,SW,229,0.0,10.0,80,0.00,,,0.02,Wunderground v.1.15,2013-06-29 11:47:00,
2013-06-29 07:52:00,80.5,73.8,29.74,West,280,0.0,1.0,80,0.00,,,0.02,Wunderground v.1.15,2013-06-29 11:52:00,
2013-06-29 07:57:00,80.3,73.9,29.74,West,280,0.0,1.0,81,0.00,,,0.02,Wunderground v.1.15,2013-06-29 11:57:00,
2013-06-29 08:02:00,80.5,74.1,29.74,SW,232,0.0,1.0,81,0.00,,,0.02,Wunderground v.1.15,2013-06-29 12:02:00,
2013-06-29 08:07:00,80.5,73.8,29.74,South,182,0.0,2.0,80,0.00,,,0.02,Wunderground v.1.15,2013-06-29 12:07:00,
2013-06-29 08:12:00,80.7,74.0,29.74,SSE,162,7.0,11.0,80,0.00,,,0.02,Wunderground v.1.15,2013-06-29 12:12:00,
2013-06-29 08:17:00,81.1,74.3,29.74,SSW,212,0.0,13.0,80,0.00,,,0.02,Wunderground v.1.15,2013-06-29 12:17:00,
2013-06-29 08:22:00,81.4,74.6,29.74,SW,229,0.0,3.0,80,0.00,,,0.02,Wunderground v.1.15,2013-06-29 12:22:00,
2013-06-29 08:27:00,82.0,75.2,29.74,SW,222,0.0,8.0,80,0.00,,,0.02,Wunderground v.1.15,2013-06-29 12:27:00,
2013-06-29 08:32:00,82.6,75.4,29.73,SSE,150,3.0,8.0,79,0.00,,,0.02,Wunderground v.1.15,2013-06-29 12:32:00,
2013-06-29 08:37:00,83.2,76.0,29.73,SW,217,0.0,8.0,79,0.00,,,0.02,Wunderground v.1.15,2013-06-29 12:37:00,
2013-06-29 08:42:00,83.4,75.8,29.73,SW,232,1.0,2.0,78,0.00,,,0.02,Wunderground v.1.15,2013-06-29 12:42:00,
2013-06-29 08:47:00,83.4,75.4,29.74,SE,126,0.0,5.0,77,0.00,,,0.02,Wunderground v.1.15,2013-06-29 12:47:00,
2013-06-29 08:52:00,83.2,75.2,29.74,SW,222,0.0,1.0,77,0.00,,,0.02,Wunderground v.1.15,2013-06-29 12:52:00,
2013-06-29 08:57:00,83.2,75.2,29.74,South,176,0.0,1.0,77,0.00,,,0.02,Wunderground v.1.15,2013-06-29 12:57:00,
2013-06-29 09:02:00,83.2,75.2,29.74,WSW,243,2.0,6.0,77,0.00,,,0.02,Wunderground v.1.15,2013-06-29 13:02:00,
2013-06-29 09:07:00,83.0,74.6,29.74,SW,224,0.0,11.0,76,0.00,,,0.02,Wunderground v.1.15,2013-06-29 13:07:00,
2013-06-29 09:12:00,83.2,74.8,29.74,SW,232,0.0,2.0,76,0.00,,,0.02,Wunderground v.1.15,2013-06-29 13:12:00,
2013-06-29 09:17:00,83.2,74.8,29.73,West,260,0.0,7.0,76,0.00,,,0.02,Wunderground v.1.15,2013-06-29 13:17:00,
2013-06-29 09:22:00,83.6,74.8,29.73,SSW,205,0.0,7.0,75,0.00,,,0.02,Wunderground v.1.15,2013-06-29 13:22:00,
2013-06-29 09:27:00,84.0,75.2,29.73,South,182,0.0,7.0,75,0.00,,,0.02,Wunderground v.1.15,2013-06-29 13:27:00,
2013-06-29 09:32:00,84.5,75.7,29.74,SSW,198,0.0,2.0,75,0.00,,,0.02,Wunderground v.1.15,2013-06-29 13:32:00,
2013-06-29 09:37:00,85.1,75.9,29.74,SE,134,0.0,7.0,74,0.00,,,0.02,Wunderground v.1.15,2013-06-29 13:37:00,
2013-06-29 09:42:00,85.7,76.0,29.74,SSW,200,1.0,6.0,73,0.00,,,0.02,Wunderground v.1.15,2013-06-29 13:42:00,
2013-06-29 09:47:00,85.9,76.2,29.74,West,272,0.0,8.0,73,0.00,,,0.02,Wunderground v.1.15,2013-06-29 13:47:00,
2013-06-29 09:52:00,85.9,75.8,29.74,ESE,121,0.0,6.0,72,0.00,,,0.02,Wunderground v.1.15,2013-06-29 13:52:00,
2013-06-29 09:57:00,85.7,74.8,29.74,SSW,202,0.0,7.0,70,0.00,,,0.02,Wunderground v.1.15,2013-06-29 13:57:00,
2013-06-29 10:02:00,85.7,74.4,29.74,ESE,106,0.0,5.0,69,0.00,,,0.02,Wunderground v.1.15,2013-06-29 14:02:00,
2013-06-29 10:07:00,85.9,74.5,29.74,SE,143,0.0,13.0,69,0.00,,,0.02,Wunderground v.1.15,2013-06-29 14:07:00,
2013-06-29 10:12:00,86.3,75.4,29.74,WSW,244,0.0,11.0,70,0.00,,,0.02,Wunderground v.1.15,2013-06-29 14:12:00,
2013-06-29 10:17:00,86.3,74.5,29.76,WSW,247,0.0,11.0,68,0.00,,,0.02,Wunderground v.1.15,2013-06-29 14:17:00,
2013-06-29 10:22:00,86.1,74.3,29.76,WNW,301,0.0,3.0,68,0.00,,,0.02,Wunderground v.1.15,2013-06-29 14:22:00,
2013-06-29 10:27:00,85.9,74.1,29.76,SSE,168,0.0,7.0,68,0.00,,,0.02,Wunderground v.1.15,2013-06-29 14:27:00,
2013-06-29 10:32:00,85.7,73.9,29.75,SW,230,0.0,0.0,68,0.00,,,0.02,Wunderground v.1.15,2013-06-29 14:32:00,
2013-06-29 10:38:00,85.5,73.7,29.75,SW,222,0.0,0.0,68,0.00,,,0.02,Wunderground v.1.15,2013-06-29 14:38:00,
2013-06-29 10:43:00,85.3,73.1,29.75,WSW,247,5.0,5.0,67,0.00,,,0.02,Wunderground v.1.15,2013-06-29 14:43:00,
2013-06-29 10:48:00,85.1,73.3,29.76,SW,219,3.0,6.0,68,0.00,,,0.02,Wunderground v.1.15,2013-06-29 14:48:00,
2013-06-29 10:53:00,84.5,72.8,29.76,SSW,210,0.0,3.0,68,0.00,,,0.02,Wunderground v.1.15,2013-06-29 14:53:00,
2013-06-29 10:58:00,84.0,71.9,29.76,WNW,292,0.0,7.0,67,0.00,,,0.02,Wunderground v.1.15,2013-06-29 14:58:00,
2013-06-29 11:03:00,83.0,70.9,29.76,SSW,193,2.0,3.0,67,0.00,,,0.02,Wunderground v.1.15,2013-06-29 15:03:00,
2013-06-29 11:08:00,82.0,70.4,29.76,SSW,213,0.0,7.0,68,0.00,,,0.02,Wunderground v.1.15,2013-06-29 15:08:00,
2013-06-29 11:13:00,81.4,69.8,29.76,SW,220,0.0,6.0,68,0.00,,,0.02,Wunderground v.1.15,2013-06-29 15:13:00,
2013-06-29 11:18:00,80.9,70.2,29.76,SSW,213,0.0,7.0,70,0.19,,,0.04,Wunderground v.1.15,2013-06-29 15:18:00,
2013-06-29 11:23:00,80.3,70.0,29.76,South,174,0.0,1.0,71,0.13,,,0.06,Wunderground v.1.15,2013-06-29 15:23:00,
2013-06-29 11:28:00,79.9,70.1,29.76,SSW,198,0.0,6.0,72,0.11,,,0.06,Wunderground v.1.15,2013-06-29 15:28:00,
2013-06-29 11:33:00,79.4,70.0,29.77,South,182,0.0,0.0,73,0.17,,,0.07,Wunderground v.1.15,2013-06-29 15:33:00,
2013-06-29 11:38:00,78.6,69.6,29.77,NW,305,0.0,6.0,74,0.12,,,0.08,Wunderground v.1.15,2013-06-29 15:38:00,
2013-06-29 11:43:00,77.9,69.3,29.77,SW,227,0.0,12.0,75,0.51,,,0.11,Wunderground v.1.15,2013-06-29 15:43:00,
2013-06-29 11:48:00,77.2,68.7,29.78,SSE,168,0.0,12.0,75,1.47,,,0.14,Wunderground v.1.15,2013-06-29 15:48:00,
2013-06-29 11:53:00,76.5,68.4,29.78,SSE,168,0.0,5.0,76,0.18,,,0.17,Wunderground v.1.15,2013-06-29 15:53:00,
2013-06-29 11:58:00,76.3,68.6,29.78,SSE,168,0.0,5.0,77,0.11,,,0.17,Wunderground v.1.15,2013-06-29 15:58:00,
2013-06-29 12:03:00,76.1,68.4,29.77,SSE,168,0.0,0.0,77,0.06,,,0.17,Wunderground v.1.15,2013-06-29 16:03:00,
2013-06-29 12:08:00,75.8,68.4,29.77,SSE,168,0.0,0.0,78,0.04,,,0.17,Wunderground v.1.15,2013-06-29 16:08:00,
2013-06-29 12:13:00,75.6,68.6,29.77,SSE,168,0.0,1.0,79,0.00,,,0.17,Wunderground v.1.15,2013-06-29 16:13:00,
2013-06-29 12:18:00,75.6,69.0,29.76,SSE,167,0.0,1.0,80,0.00,,,0.17,Wunderground v.1.15,2013-06-29 16:18:00,
2013-06-29 12:23:00,75.8,69.6,29.76,SSE,168,0.0,0.0,81,0.00,,,0.17,Wunderground v.1.15,2013-06-29 16:23:00,
2013-06-29 12:28:00,76.0,69.7,29.76,SSE,167,0.0,2.0,81,0.00,,,0.17,Wunderground v.1.15,2013-06-29 16:28:00,
2013-06-29 12:33:00,76.3,70.4,29.75,SSE,160,0.0,1.0,82,0.00,,,0.17,Wunderground v.1.15,2013-06-29 16:33:00,
2013-06-29 12:38:00,76.5,70.6,29.75,SSE,160,0.0,1.0,82,0.00,,,0.17,Wunderground v.1.15,2013-06-29 16:38:00,
2013-06-29 12:43:00,76.8,71.2,29.75,SSE,162,0.0,0.0,83,0.00,,,0.17,Wunderground v.1.15,2013-06-29 16:43:00,
2013-06-29 12:49:00,77.2,72.0,29.75,SSE,162,0.0,0.0,84,0.00,,,0.17,Wunderground v.1.15,2013-06-29 16:49:00,
2013-06-29 12:54:00,77.7,72.5,29.75,SW,217,0.0,2.0,84,0.00,,,0.17,Wunderground v.1.15,2013-06-29 16:54:00,
2013-06-29 12:59:00,78.1,72.9,29.75,SSW,210,0.0,2.0,84,0.00,,,0.17,Wunderground v.1.15,2013-06-29 16:59:00,
2013-06-29 13:04:00,78.5,73.3,29.75,SW,215,0.0,1.0,84,0.00,,,0.17,Wunderground v.1.15,2013-06-29 17:04:00,
2013-06-29 13:09:00,78.8,73.6,29.75,SSW,206,0.0,6.0,84,0.00,,,0.17,Wunderground v.1.15,2013-06-29 17:09:00,
2013-06-29 13:14:00,79.0,73.7,29.75,SSW,213,0.0,0.0,84,0.00,,,0.17,Wunderground v.1.15,2013-06-29 17:14:00,
2013-06-29 13:19:00,79.2,73.9,29.74,SW,215,0.0,0.0,84,0.00,,,0.17,Wunderground v.1.15,2013-06-29 17:19:00,
2013-06-29 13:24:00,79.6,74.3,29.74,SSE,165,0.0,0.0,84,0.00,,,0.17,Wunderground v.1.15,2013-06-29 17:24:00,
2013-06-29 13:29:00,79.9,74.6,29.74,SW,227,4.0,6.0,84,0.00,,,0.17,Wunderground v.1.15,2013-06-29 17:29:00,
2013-06-29 13:34:00,80.5,75.6,29.74,SW,229,0.0,2.0,85,0.00,,,0.17,Wunderground v.1.15,2013-06-29 17:34:00,
2013-06-29 13:39:00,81.1,76.2,29.74,SW,232,5.0,7.0,85,0.00,,,0.17,Wunderground v.1.15,2013-06-29 17:39:00,
2013-06-29 13:44:00,81.6,76.3,29.74,SSW,210,0.0,1.0,84,0.00,,,0.17,Wunderground v.1.15,2013-06-29 17:44:00,
2013-06-29 13:49:00,82.0,76.7,29.75,WSW,258,0.0,8.0,84,0.00,,,0.17,Wunderground v.1.15,2013-06-29 17:49:00,
2013-06-29 13:54:00,82.2,76.2,29.75,WNW,282,6.0,7.0,82,0.00,,,0.17,Wunderground v.1.15,2013-06-29 17:54:00,
2013-06-29 13:59:00,81.6,74.8,29.75,NW,305,4.0,14.0,80,0.00,,,0.17,Wunderground v.1.15,2013-06-29 17:59:00,
2013-06-29 14:04:00,81.2,74.4,29.75,NNW,329,0.0,7.0,80,0.00,,,0.17,Wunderground v.1.15,2013-06-29 18:04:00,
2013-06-29 14:09:00,81.1,74.3,29.75,WNW,292,0.0,10.0,80,0.00,,,0.17,Wunderground v.1.15,2013-06-29 18:09:00,
2013-06-29 14:14:00,80.5,73.8,29.75,NNW,342,0.0,11.0,80,0.00,,,0.17,Wunderground v.1.15,2013-06-29 18:14:00,
2013-06-29 14:19:00,80.3,73.6,29.75,WNW,292,0.0,11.0,80,0.00,,,0.17,Wunderground v.1.15,2013-06-29 18:19:00,
2013-06-29 14:24:00,80.3,73.6,29.75,North,6,0.0,5.0,80,0.00,,,0.17,Wunderground v.1.15,2013-06-29 18:24:00,
2013-06-29 14:29:00,80.5,73.4,29.75,West,281,0.0,6.0,79,0.00,,,0.17,Wunderground v.1.15,2013-06-29 18:29:00,
2013-06-29 14:34:00,81.1,73.6,29.73,SW,234,0.0,6.0,78,0.00,,,0.17,Wunderground v.1.15,2013-06-29 18:34:00,
2013-06-29 14:39:00,81.2,73.3,29.73,West,264,0.0,6.0,77,0.00,,,0.17,Wunderground v.1.15,2013-06-29 18:39:00,
2013-06-29 14:44:00,81.6,73.7,29.73,SSE,152,0.0,7.0,77,0.00,,,0.17,Wunderground v.1.15,2013-06-29 18:44:00,
2013-06-29 14:49:00,81.6,74.1,29.74,SE,143,6.0,8.0,78,0.00,,,0.17,Wunderground v.1.15,2013-06-29 18:49:00,
2013-06-29 14:54:00,81.2,73.3,29.74,SW,223,0.0,8.0,77,0.00,,,0.17,Wunderground v.1.15,2013-06-29 18:54:00,
2013-06-29 14:59:00,80.7,73.2,29.74,SSW,195,0.0,8.0,78,0.00,,,0.17,Wunderground v.1.15,2013-06-29 18:59:00,
2013-06-29 15:04:00,80.3,72.8,29.74,SSW,196,0.0,1.0,78,0.00,,,0.17,Wunderground v.1.15,2013-06-29 19:04:00,
2013-06-29 15:09:00,80.1,73.0,29.74,South,189,0.0,1.0,79,0.00,,,0.17,Wunderground v.1.15,2013-06-29 19:09:00,
2013-06-29 15:14:00,79.8,72.7,29.74,South,189,0.0,0.0,79,0.00,,,0.17,Wunderground v.1.15,2013-06-29 19:14:00,
2013-06-29 15:19:00,79.6,72.9,29.73,South,189,0.0,0.0,80,0.00,,,0.17,Wunderground v.1.15,2013-06-29 19:19:00,
2013-06-29 15:24:00,79.6,72.9,29.73,WSW,250,0.0,0.0,80,0.00,,,0.17,Wunderground v.1.15,2013-06-29 19:24:00,
2013-06-29 15:29:00,79.8,73.1,29.73,WNW,298,0.0,6.0,80,0.00,,,0.17,Wunderground v.1.15,2013-06-29 19:29:00,
2013-06-29 15:34:00,79.8,73.1,29.73,WSW,243,0.0,6.0,80,0.00,,,0.17,Wunderground v.1.15,2013-06-29 19:34:00,
2013-06-29 15:39:00,79.6,72.5,29.73,West,275,0.0,11.0,79,0.00,,,0.17,Wunderground v.1.15,2013-06-29 19:39:00,
2013-06-29 15:44:00,79.4,72.3,29.73,WNW,301,0.0,3.0,79,0.00,,,0.17,Wunderground v.1.15,2013-06-29 19:44:00,
2013-06-29 15:49:00,79.2,72.1,29.73,West,275,0.0,5.0,79,0.00,,,0.17,Wunderground v.1.15,2013-06-29 19:49:00,
2013-06-29 15:54:00,79.2,72.1,29.73,NNW,328,0.0,0.0,79,0.00,,,0.17,Wunderground v.1.15,2013-06-29 19:54:00,
2013-06-29 15:59:00,79.4,72.7,29.73,West,260,0.0,1.0,80,0.00,,,0.17,Wunderground v.1.15,2013-06-29 19:59:00,
2013-06-29 16:04:00,79.6,73.3,29.71,SW,222,0.0,0.0,81,0.00,,,0.17,Wunderground v.1.15,2013-06-29 20:04:00,
2013-06-29 16:09:00,79.8,73.4,29.71,WSW,240,1.0,5.0,81,0.00,,,0.17,Wunderground v.1.15,2013-06-29 20:09:00,
2013-06-29 16:14:00,79.8,73.4,29.71,West,281,0.0,0.0,81,0.00,,,0.17,Wunderground v.1.15,2013-06-29 20:14:00,
2013-06-29 16:19:00,79.9,73.5,29.71,SW,217,0.0,1.0,81,0.00,,,0.17,Wunderground v.1.15,2013-06-29 20:19:00,
2013-06-29 16:24:00,79.9,73.2,29.71,SW,230,0.0,2.0,80,0.00,,,0.17,Wunderground v.1.15,2013-06-29 20:24:00,
2013-06-29 16:25:00,79.9,73.2,29.71,SW,232,0.0,2.0,80,0.00,,,0.17,Wunderground v.1.15,2013-06-29 20:25:00,
2013-06-29 16:30:00,80.1,73.4,29.70,SW,230,0.0,0.0,80,0.00,,,0.17,Wunderground v.1.15,2013-06-29 20:30:00,
2013-06-29 16:35:00,80.1,73.4,29.70,SW,219,0.0,0.0,80,0.00,,,0.17,Wunderground v.1.15,2013-06-29 20:35:00,
2013-06-29 16:40:00,80.3,73.6,29.70,SW,223,0.0,0.0,80,0.00,,,0.17,Wunderground v.1.15,2013-06-29 20:40:00,
2013-06-29 16:45:00,80.5,73.8,29.69,SW,226,0.0,8.0,80,0.00,,,0.17,Wunderground v.1.15,2013-06-29 20:45:00,
2013-06-29 16:50:00,80.7,74.0,29.69,WSW,243,0.0,1.0,80,0.00,,,0.17,Wunderground v.1.15,2013-06-29 20:50:00,
2013-06-29 16:55:00,80.9,74.1,29.69,SW,224,0.0,1.0,80,0.00,,,0.17,Wunderground v.1.15,2013-06-29 20:55:00,
2013-06-29 17:00:00,81.1,74.3,29.70,SSW,198,0.0,0.0,80,0.00,,,0.17,Wunderground v.1.15,2013-06-29 21:00:00,
2013-06-29 17:05:00,81.2,74.4,29.70,SW,230,0.0,5.0,80,0.00,,,0.17,Wunderground v.1.15,2013-06-29 21:05:00,
2013-06-29 17:10:00,81.2,74.4,29.70,SW,229,0.0,5.0,80,0.00,,,0.17,Wunderground v.1.15,2013-06-29 21:10:00,
2013-06-29 17:15:00,81.4,74.6,29.69,WSW,239,4.0,5.0,80,0.00,,,0.17,Wunderground v.1.15,2013-06-29 21:15:00,
2013-06-29 17:20:00,81.4,74.6,29.69,SW,217,0.0,0.0,80,0.00,,,0.17,Wunderground v.1.15,2013-06-29 21:20:00,
2013-06-29 17:25:00,81.4,74.3,29.69,SW,227,0.0,6.0,79,0.00,,,0.17,Wunderground v.1.15,2013-06-29 21:25:00,
2013-06-29 17:30:00,81.4,74.3,29.69,SW,227,5.0,5.0,79,0.00,,,0.17,Wunderground v.1.15,2013-06-29 21:30:00,
2013-06-29 17:35:00,81.4,74.3,29.69,SW,234,6.0,8.0,79,0.00,,,0.17,Wunderground v.1.15,2013-06-29 21:35:00,
2013-06-29 17:41:00,81.4,73.9,29.69,South,169,0.0,1.0,78,0.00,,,0.17,Wunderground v.1.15,2013-06-29 21:41:00,
2013-06-29 17:45:00,81.4,73.9,29.69,SSW,213,0.0,1.0,78,0.00,,,0.17,Wunderground v.1.15,2013-06-29 21:45:00,
2013-06-29 17:50:00,81.6,74.1,29.69,SSW,213,0.0,0.0,78,0.00,,,0.17,Wunderground v.1.15,2013-06-29 21:50:00,
2013-06-29 17:56:00,81.6,74.1,29.69,SSW,213,0.0,0.0,78,0.00,,,0.17,Wunderground v.1.15,2013-06-29 21:56:00,
2013-06-29 18:01:00,81.6,73.7,29.69,SW,216,0.0,0.0,77,0.00,,,0.17,Wunderground v.1.15,2013-06-29 22:01:00,
2013-06-29 18:06:00,81.8,73.9,29.69,SW,216,0.0,1.0,77,0.00,,,0.17,Wunderground v.1.15,2013-06-29 22:06:00,
2013-06-29 18:11:00,81.8,73.9,29.69,SSE,160,0.0,0.0,77,0.00,,,0.17,Wunderground v.1.15,2013-06-29 22:11:00,
2013-06-29 18:16:00,81.8,73.9,29.70,SW,230,0.0,6.0,77,0.00,,,0.17,Wunderground v.1.15,2013-06-29 22:16:00,
2013-06-29 18:21:00,82.0,74.1,29.70,SW,216,0.0,1.0,77,0.00,,,0.17,Wunderground v.1.15,2013-06-29 22:21:00,
2013-06-29 18:26:00,82.2,74.3,29.70,WNW,294,0.0,4.0,77,0.00,,,0.17,Wunderground v.1.15,2013-06-29 22:26:00,
2013-06-29 18:31:00,82.2,73.9,29.70,SSW,203,0.0,4.0,76,0.00,,,0.17,Wunderground v.1.15,2013-06-29 22:31:00,
2013-06-29 18:36:00,82.2,73.9,29.70,SW,217,6.0,6.0,76,0.00,,,0.17,Wunderground v.1.15,2013-06-29 22:36:00,
2013-06-29 18:41:00,82.4,74.1,29.70,West,267,0.0,1.0,76,0.00,,,0.17,Wunderground v.1.15,2013-06-29 22:41:00,
2013-06-29 18:46:00,82.4,74.1,29.69,SSW,209,0.0,3.0,76,0.00,,,0.17,Wunderground v.1.15,2013-06-29 22:46:00,
2013-06-29 18:51:00,82.4,74.1,29.69,SW,229,0.0,1.0,76,0.00,,,0.17,Wunderground v.1.15,2013-06-29 22:51:00,
2013-06-29 18:56:00,82.6,74.3,29.69,SW,220,0.0,4.0,76,0.00,,,0.17,Wunderground v.1.15,2013-06-29 22:56:00,
2013-06-29 19:01:00,82.6,74.3,29.69,South,179,0.0,0.0,76,0.00,,,0.17,Wunderground v.1.15,2013-06-29 23:01:00,
2013-06-29 19:06:00,82.6,74.3,29.69,SSW,192,0.0,4.0,76,0.00,,,0.17,Wunderground v.1.15,2013-06-29 23:06:00,
2013-06-29 19:11:00,82.6,74.3,29.69,SW,224,0.0,0.0,76,0.00,,,0.17,Wunderground v.1.15,2013-06-29 23:11:00,
2013-06-29 19:16:00,82.6,73.9,29.69,SW,215,0.0,8.0,75,0.00,,,0.17,Wunderground v.1.15,2013-06-29 23:16:00,
2013-06-29 19:21:00,82.6,73.9,29.69,SW,219,0.0,2.0,75,0.00,,,0.17,Wunderground v.1.15,2013-06-29 23:21:00,
2013-06-29 19:26:00,82.4,73.7,29.69,SW,217,0.0,3.0,75,0.00,,,0.17,Wunderground v.1.15,2013-06-29 23:26:00,
2013-06-29 19:31:00,82.4,73.7,29.69,South,181,0.0,0.0,75,0.00,,,0.17,Wunderground v.1.15,2013-06-29 23:31:00,
2013-06-29 19:36:00,82.4,73.7,29.69,SSW,202,0.0,0.0,75,0.00,,,0.17,Wunderground v.1.15,2013-06-29 23:36:00,
2013-06-29 19:41:00,82.4,73.7,29.69,SW,222,0.0,0.0,75,0.00,,,0.17,Wunderground v.1.15,2013-06-29 23:41:00,
2013-06-29 19:46:00,82.4,73.7,29.70,SW,233,0.0,1.0,75,0.00,,,0.17,Wunderground v.1.15,2013-06-29 23:46:00,
2013-06-29 19:51:00,82.2,73.5,29.70,SW,220,2.0,4.0,75,0.00,,,0.17,Wunderground v.1.15,2013-06-29 23:51:00,
2013-06-29 19:56:00,82.0,73.3,29.70,SW,220,0.0,4.0,75,0.00,,,0.17,Wunderground v.1.15,2013-06-29 23:56:00,
2013-06-29 20:01:00,82.0,73.3,29.70,SW,220,0.0,0.0,75,0.00,,,0.17,Wunderground v.1.15,2013-06-30 00:01:00,
2013-06-29 20:06:00,81.8,73.1,29.70,SSW,206,0.0,0.0,75,0.00,,,0.17,Wunderground v.1.15,2013-06-30 00:06:00,
2013-06-29 20:11:00,81.6,72.5,29.70,East,95,0.0,0.0,74,0.00,,,0.17,Wunderground v.1.15,2013-06-30 00:11:00,
2013-06-29 20:16:00,81.4,72.3,29.70,SSW,213,0.0,2.0,74,0.00,,,0.17,Wunderground v.1.15,2013-06-30 00:16:00,
2013-06-29 20:21:00,81.2,72.1,29.70,NE,49,0.0,0.0,74,0.00,,,0.17,Wunderground v.1.15,2013-06-30 00:21:00,
2013-06-29 20:26:00,81.1,72.4,29.70,NE,49,0.0,0.0,75,0.00,,,0.17,Wunderground v.1.15,2013-06-30 00:26:00,
2013-06-29 20:31:00,81.1,72.4,29.70,NE,49,0.0,0.0,75,0.00,,,0.17,Wunderground v.1.15,2013-06-30 00:31:00,
2013-06-29 20:36:00,80.9,72.2,29.70,NE,49,0.0,0.0,75,0.00,,,0.17,Wunderground v.1.15,2013-06-30 00:36:00,
2013-06-29 20:41:00,80.9,72.2,29.70,NE,49,0.0,0.0,75,0.00,,,0.17,Wunderground v.1.15,2013-06-30 00:41:00,
2013-06-29 20:47:00,80.7,72.0,29.70,NE,51,0.0,0.0,75,0.00,,,0.17,Wunderground v.1.15,2013-06-30 00:47:00,
2013-06-29 20:52:00,80.5,71.8,29.70,NE,51,0.0,0.0,75,0.00,,,0.17,Wunderground v.1.15,2013-06-30 00:52:00,
2013-06-29 20:56:00,80.3,71.6,29.70,NE,49,0.0,0.0,75,0.00,,,0.17,Wunderground v.1.15,2013-06-30 00:56:00,
2013-06-29 21:02:00,80.1,71.5,29.70,NE,51,0.0,0.0,75,0.00,,,0.17,Wunderground v.1.15,2013-06-30 01:02:00,
2013-06-29 21:07:00,79.9,71.3,29.70,ESE,107,0.0,0.0,75,0.00,,,0.17,Wunderground v.1.15,2013-06-30 01:07:00,
2013-06-29 21:12:00,79.8,71.6,29.70,ESE,107,0.0,0.0,76,0.00,,,0.17,Wunderground v.1.15,2013-06-30 01:12:00,
2013-06-29 21:17:00,79.6,71.4,29.71,ESE,121,0.0,0.0,76,0.00,,,0.17,Wunderground v.1.15,2013-06-30 01:17:00,
2013-06-29 21:22:00,79.4,71.2,29.71,SE,126,0.0,0.0,76,0.00,,,0.17,Wunderground v.1.15,2013-06-30 01:22:00,
2013-06-29 21:27:00,79.2,71.4,29.71,SE,126,0.0,0.0,77,0.00,,,0.17,Wunderground v.1.15,2013-06-30 01:27:00,
2013-06-29 21:32:00,79.2,71.4,29.72,SE,126,0.0,0.0,77,0.00,,,0.17,Wunderground v.1.15,2013-06-30 01:32:00,
2013-06-29 21:37:00,79.0,71.2,29.72,SE,126,0.0,0.0,77,0.00,,,0.17,Wunderground v.1.15,2013-06-30 01:37:00,
2013-06-29 21:42:00,79.0,71.6,29.72,SE,126,0.0,0.0,78,0.00,,,0.17,Wunderground v.1.15,2013-06-30 01:42:00,
2013-06-29 21:47:00,79.0,71.6,29.72,SE,126,0.0,0.0,78,0.00,,,0.17,Wunderground v.1.15,2013-06-30 01:47:00,
2013-06-29 21:52:00,79.0,71.6,29.72,SE,126,0.0,0.0,78,0.00,,,0.17,Wunderground v.1.15,2013-06-30 01:52:00,
2013-06-29 21:57:00,78.8,71.4,29.72,SE,126,0.0,0.0,78,0.00,,,0.17,Wunderground v.1.15,2013-06-30 01:57:00,
2013-06-29 22:02:00,78.8,71.7,29.73,SE,126,0.0,0.0,79,0.00,,,0.17,Wunderground v.1.15,2013-06-30 02:02:00,
2013-06-29 22:07:00,78.8,71.7,29.73,SE,127,0.0,1.0,79,0.00,,,0.17,Wunderground v.1.15,2013-06-30 02:07:00,
2013-06-29 22:12:00,78.8,71.7,29.73,SE,127,0.0,0.0,79,0.00,,,0.17,Wunderground v.1.15,2013-06-30 02:12:00,
2013-06-29 22:17:00,78.8,72.1,29.73,SE,127,0.0,0.0,80,0.00,,,0.17,Wunderground v.1.15,2013-06-30 02:17:00,
2013-06-29 22:22:00,78.8,72.1,29.73,SE,127,0.0,0.0,80,0.00,,,0.17,Wunderground v.1.15,2013-06-30 02:22:00,
2013-06-29 22:27:00,78.8,72.1,29.73,SE,127,0.0,0.0,80,0.00,,,0.17,Wunderground v.1.15,2013-06-30 02:27:00,
2013-06-29 22:32:00,78.8,72.1,29.73,SE,127,0.0,0.0,80,0.00,,,0.17,Wunderground v.1.15,2013-06-30 02:32:00,
2013-06-29 22:37:00,78.8,72.1,29.73,SE,127,0.0,0.0,80,0.00,,,0.17,Wunderground v.1.15,2013-06-30 02:37:00,
2013-06-29 22:42:00,78.6,71.9,29.73,SE,127,0.0,0.0,80,0.00,,,0.17,Wunderground v.1.15,2013-06-30 02:42:00,
2013-06-29 22:47:00,78.6,72.3,29.74,SE,127,0.0,0.0,81,0.00,,,0.17,Wunderground v.1.15,2013-06-30 02:47:00,
2013-06-29 22:52:00,78.6,72.3,29.74,SE,127,0.0,0.0,81,0.00,,,0.17,Wunderground v.1.15,2013-06-30 02:52:00,
2013-06-29 22:57:00,78.6,72.3,29.74,SE,127,0.0,0.0,81,0.00,,,0.17,Wunderground v.1.15,2013-06-30 02:57:00,
2013-06-29 23:02:00,78.6,72.3,29.74,SE,127,0.0,0.0,81,0.00,,,0.17,Wunderground v.1.15,2013-06-30 03:02:00,
2013-06-29 23:07:00,78.6,72.3,29.74,SE,127,0.0,0.0,81,0.00,,,0.17,Wunderground v.1.15,2013-06-30 03:07:00,
2013-06-29 23:12:00,78.6,72.3,29.74,SE,127,0.0,0.0,81,0.00,,,0.17,Wunderground v.1.15,2013-06-30 03:12:00,
2013-06-29 23:17:00,78.5,72.2,29.74,SE,127,0.0,0.0,81,0.00,,,0.17,Wunderground v.1.15,2013-06-30 03:17:00,
2013-06-29 23:22:00,78.5,72.5,29.74,SE,127,0.0,0.0,82,0.00,,,0.17,Wunderground v.1.15,2013-06-30 03:22:00,
2013-06-29 23:27:00,78.5,72.5,29.74,SE,127,0.0,0.0,82,0.00,,,0.17,Wunderground v.1.15,2013-06-30 03:27:00,
2013-06-29 23:32:00,78.3,72.3,29.73,SE,127,0.0,0.0,82,0.00,,,0.17,Wunderground v.1.15,2013-06-30 03:32:00,
2013-06-29 23:37:00,78.3,72.3,29.73,SE,127,0.0,0.0,82,0.00,,,0.17,Wunderground v.1.15,2013-06-30 03:37:00,
2013-06-29 23:42:00,78.3,72.3,29.73,SE,127,0.0,0.0,82,0.00,,,0.17,Wunderground v.1.15,2013-06-30 03:42:00,
2013-06-29 23:47:00,78.1,72.2,29.73,SE,127,0.0,0.0,82,0.00,,,0.17,Wunderground v.1.15,2013-06-30 03:47:00,
2013-06-29 23:52:00,78.1,72.2,29.73,SE,127,0.0,0.0,82,0.00,,,0.17,Wunderground v.1.15,2013-06-30 03:52:00,
2013-06-29 23:57:00,77.9,72.0,29.73,SE,127,0.0,0.0,82,0.00,,,0.17,Wunderground v.1.15,2013-06-30 03:57:00,